Powrót do katalogu

STARLINK-3883

AktywnyŁącznośćVLEO
NORAD 52493·PAYLOAD·🇺🇸 United States

Wystrzelony May 6, 2022 z Cape Canaveral Space Force Station

Loading…

Następne Przeloty (najbliższe 24 godziny)

TLE

ŚwieżeSource: CelesTrak SupGP

Epoka: Sep 14, 2026, 20:59 UTC

1 52493C 22049AU  26257.87479167  .00042872  00000+0  12266-2 0  2579
2 52493  53.1586 270.3217 0001289  86.0440 125.0005 15.35377255    14

Śledź STARLINK-3883 w czasie rzeczywistym z AllMySat

Download on the App Store